AEHF-3 (USA 246)

Last updated on Tue Sep 22 2026 00:03:12 GMT+0000 (Coordinated Universal Time)

1 39256U 13050A 26264.54273775 .00000029 00000+0 00000+0 0 9993 2 39256 5.5270 66.2426 0092307 188.6543 176.6624 1.00270874 46627
UTC large
Height (km)
Speed (km/s)
/
Latitude / Longitude
Inclination (degrees)
Orbital Period (minutes)
Azimuth
Elevation
Range (km)
Doppler Factor

Next 0 passes for location: London (51.5072 / 0.1276)

No passes found over London.
AEHF-3 (USA 246)